Wind_Speed
13 11 15 15 14 13 6 7 9 4 5 8 5 6 1 4 8 9 9 9 10 11 11 14 16 17 15 14 14 13 13 10 9 10 9 11 13 14 16 17 19 20 22 23
8 16 16 11 10 11 11 11 11 5 4 8 8 9 4 4 8 8 9 10 10 10 11 9 13 16 16 15 14 13 12 9 9 9 10 10 11 11 14 14 18 20 22 22
15 2 9 14 14 14 14 12 9 7 8 8 8 11 6 4 7 6 7 8 8 9 8 11 11 15 13 12 13 12 8 6 6 6 8 12 12 10 9 13 15 18 20 21
13 13 7 14 17 14 13 11 9 13 8 6 3 7 7 3 6 10 10 10 9 6 5 7 10 11 10 11 9 7 6 5 3 5 9 10 13 13 14 14 12 14 18 19
6 9 14 14 14 14 12 3 6 6 9 7 10 7 5 5 8 6 9 8 5 1 5 10 11 11 10 9 9 6 4 3 2 4 6 9 12 13 12 12 12 14 14 16
11 1 7 14 12 10 7 8 6 7 9 10 4 6 8 4 2 1 5 5 4 5 8 10 12 11 10 8 7 5 4 1 1 2 7 9 9 8 9 8 12 12 11 13
13 13 9 7 9 10 13 12 8 9 9 9 4 5 9 2 4 2 5 6 4 8 10 12 12 11 10 7 5 3 2 2 1 1 5 3 7 8 9 7 10 10 13 13
10 12 18 14 17 10 17 14 10 6 9 6 4 6 1 2 2 5 8 6 7 9 9 9 10 10 7 5 2 1 0 0 1 4 5 7 5 8 5 8 8 9 11 11
8 9 5 9 16 16 13 14 16 11 6 8 9 5 8 4 5 6 7 7 8 8 9 9 7 7 8 5 2 1 1 1 2 6 4 6 9 7 9 7 6 8 9 11
3 5 11 11 7 8 9 14 10 9 14 8 6 5 8 8 9 8 7 8 7 8 10 9 7 9 7 4 2 2 1 2 4 5 5 4 4 9 11 9 11 11 11 12
13 8 8 9 12 14 10 11 10 8 4 9 9 5 5 6 8 8 5 6 8 10 10 8 7 7 6 3 1 3 2 3 4 3 4 3 5 9 10 9 8 9 10 11
16 9 10 14 5 6 18 19 18 11 13 10 9 6 6 5 7 5 6 5 6 11 11 7 6 6 3 1 1 2 2 2 3 3 4 4 7 6 5 6 6 6 6 7
9 9 10 11 9 9 9 12 11 12 7 7 9 3 4 5 7 7 6 7 7 9 11 8 7 6 3 1 2 3 4 3 5 5 4 4 8 7 5 6 5 5 7 9
5 4 11 10 4 8 18 15 13 13 10 12 11 8 6 8 9 10 9 9 11 7 7 7 5 4 3 1 2 7 6 5 6 6 5 8 9 8 7 6 8 7 7 12
7 8 10 12 6 6 10 14 16 17 16 15 13 8 2 10 10 9 11 10 11 8 6 5 4 3 5 7 5 7 8 7 7 8 8 11 11 8 10 11 12 12 12 11
5 7 6 11 6 9 11 15 13 15 16 11 10 10 3 10 12 12 10 10 11 9 11 4 1 2 5 6 9 9 10 10 9 10 11 13 12 10 10 11 12 12 11 9
6 7 8 13 4 6 11 12 12 12 9 12 12 1 9 12 12 11 9 8 12 11 6 2 4 6 9 10 11 12 12 12 12 13 13 14 13 12 10 9 9 9 9 8
6 8 6 10 3 12 5 2 5 7 5 4 2 4 8 12 14 12 12 11 9 6 2 2 5 8 11 13 13 13 15 15 16 16 15 14 13 11 9 9 8 7 7 8
5 10 8 10 11 11 8 5 3 7 9 4 3 7 12 15 18 11 10 9 7 4 2 4 7 10 14 16 15 14 14 17 18 18 17 15 13 12 11 12 11 10 11 11
4 6 8 6 14 14 2 6 3 2 8 7 6 10 14 14 10 6 7 7 6 5 2 4 6 7 10 13 9 9 11 14 18 17 9 16 15 13 13 13 14 14 16 15
9 8 12 10 10 6 5 3 1 8 2 6 7 9 10 6 7 12 8 7 6 5 5 5 6 9 11 9 8 16 21 20 19 20 18 17 16 16 16 16 16 20 18 18
9 11 9 9 11 14 5 6 5 5 5 6 8 9 13 14 13 11 9 7 5 6 7 8 10 12 14 12 18 20 22 20 24 26 26 25 24 23 22 20 22 27 27 27
5 4 5 2 4 5 2 4 3 1 7 8 9 11 14 13 11 10 8 6 6 7 9 9 12 17 20 18 20 23 20 26 29 32 30 28 25 26 29 35 29 30 29 26
4 1 3 3 5 4 5 6 3 5 7 7 10 11 12 14 11 10 8 7 7 8 10 11 14 17 18 20 23 25 25 27 30 32 31 28 28 27 26 25 23 27 25 23
2 6 4 2 6 6 6 7 9 11 10 11 11 11 12 13 11 10 9 8 11 12 13 13 16 18 19 22 24 22 25 29 31 30 27 26 26 27 32 29 24 26 22 22
7 7 7 2 7 2 8 9 11 13 12 12 15 13 11 12 11 12 9 13 13 15 16 17 17 20 20 21 21 22 22 24 27 29 25 23 25 25 24 24 23 22 20 18
Wind_Direction
200 215 219 226 227 266 280 261 259 259 319 297 271 281 259 210 220 210 211 205 221 223 210 201 202 204 205 207 207 200 196 200 201 212 226 245 246 244 240 236 232 226 221 221
184 228 229 242 229 237 239 248 255 280 190 292 292 289 250 237 238 228 213 224 223 219 220 197 207 202 204 205 213 213 209 212 215 225 245 258 262 258 245 242 235 230 224 221
224 114 233 215 222 229 234 243 243 269 305 263 283 242 185 216 247 219 233 241 251 250 229 189 197 197 200 204 210 213 220 209 218 233 263 268 264 263 250 249 235 226 222 217
241 250 252 206 225 219 239 221 251 260 258 255 298 276 173 227 246 231 239 236 239 245 210 175 182 181 190 196 198 199 188 197 211 241 274 276 271 263 261 252 245 220 215 216
195 211 208 208 214 217 245 238 240 246 247 274 193 257 270 179 274 238 221 219 245 304 150 162 167 166 187 171 174 176 166 167 267 260 262 267 268 266 265 252 237 215 210 210
268 194 224 228 218 220 190 205 216 241 244 232 188 271 275 353 0 320 142 178 194 145 140 148 145 157 162 162 162 177 187 146 159 252 286 277 291 299 286 268 223 195 205 202
208 217 205 212 189 202 215 205 209 218 206 245 104 243 269 97 122 183 188 205 158 154 156 143 154 166 165 163 162 191 231 126 176 333 2 1 357 337 307 278 186 184 193 192
219 217 205 193 222 178 201 214 247 220 237 219 151 255 252 98 265 185 204 204 152 171 149 156 162 158 141 112 104 6 338 329 135 116 68 354 45 28 24 146 163 178 181 174
207 236 176 215 206 221 186 221 244 273 254 279 266 232 235 194 178 173 188 190 180 165 142 162 141 116 99 82 22 332 44 171 76 112 95 61 65 61 92 115 121 122 145 146
204 265 184 166 184 221 250 211 203 227 264 256 211 260 270 187 193 189 198 188 167 150 149 151 126 110 95 60 358 343 328 187 126 104 102 67 113 80 86 89 76 107 111 123
230 238 151 164 207 205 193 220 236 293 305 293 270 222 86 170 182 190 164 181 170 159 160 148 114 106 98 88 14 302 219 208 191 158 122 131 110 132 85 76 86 93 104 117
208 224 241 226 150 268 209 214 213 236 210 229 298 312 131 167 198 208 150 154 172 160 164 108 135 139 116 134 219 212 253 217 202 139 107 118 166 144 123 99 95 115 116 127
165 215 226 209 193 203 227 213 221 230 282 225 259 250 140 148 171 149 129 131 149 160 116 151 164 160 159 190 232 245 231 210 177 160 125 116 165 165 168 151 143 142 135 140
206 218 252 255 354 219 205 231 216 217 228 239 243 272 151 174 169 139 126 134 118 126 163 170 169 173 210 235 196 231 224 208 192 193 155 131 139 140 147 152 145 144 145 164
220 231 224 263 296 265 257 217 210 213 236 262 265 261 251 177 162 133 124 129 129 133 151 148 160 220 254 250 221 237 229 209 203 197 175 154 144 130 129 132 127 127 121 130
203 241 235 250 220 244 240 237 253 233 249 269 276 270 45 135 125 119 118 140 149 158 107 111 14 316 300 279 254 238 225 218 203 194 181 166 158 149 142 141 137 133 129 128
210 229 225 247 174 252 231 224 228 214 240 237 230 44 142 141 142 129 126 132 101 97 110 162 282 301 297 285 270 261 242 215 202 198 179 171 169 159 157 154 153 149 141 132
208 215 238 256 201 236 69 143 233 250 212 202 132 96 146 139 109 95 83 106 105 109 104 332 308 298 294 294 284 269 251 221 199 197 182 175 175 163 162 155 139 135 137 127
249 224 213 245 234 242 164 141 186 219 190 173 178 147 132 132 114 89 99 100 98 85 40 320 318 310 303 295 285 267 246 224 197 194 188 185 146 132 130 128 126 125 119 109
209 254 238 200 255 239 58 104 12 229 235 140 161 152 148 158 199 106 103 103 103 90 37 344 334 328 328 326 300 257 217 205 187 187 141 119 124 130 122 118 115 112 114 110
200 222 224 218 241 243 105 112 213 227 98 118 142 145 150 144 61 118 114 95 82 77 62 41 34 23 13 20 68 86 85 78 108 117 121 122 120 114 111 110 111 119 106 106
214 218 220 237 258 244 115 153 249 51 91 119 120 128 99 111 113 108 104 97 89 77 71 62 57 42 43 56 82 73 77 104 110 112 103 102 103 101 99 98 101 100 98 96
241 329 309 310 36 66 66 45 92 112 125 113 118 120 127 125 120 118 114 110 92 82 78 77 73 65 59 67 82 84 88 101 102 105 102 104 108 105 111 109 102 100 101 101
151 217 253 192 148 118 121 138 143 137 112 110 117 124 126 123 126 130 129 116 100 88 88 92 88 78 71 76 84 93 98 99 97 94 96 101 99 99 97 100 101 104 101 97
5 170 223 184 141 146 147 113 119 105 107 108 104 104 122 128 134 135 127 117 110 106 101 96 93 94 92 95 94 97 101 103 100 99 102 101 102 102 102 99 98 99 97 99
184 220 227 268 128 211 155 139 135 131 129 123 122 121 125 132 133 131 121 117 116 113 112 102 97 101 99 99 98 102 102 105 109 107 105 106 104 102 98 97 90 88 93 95
Height
765 772 773 760 756 753 761 768 772 760 751 760 752 753 745 740 741 742 745 748 751 751 752 758 765 769 773 777 780 781 784 785 789 789 791 792 793 795 795 795 796 798 801 804
772 774 751 749 753 762 765 770 767 756 755 758 749 749 738 740 739 737 742 744 746 747 749 754 762 767 771 774 777 780 782 784 785 785 787 789 789 789 789 791 791 793 796 799
761 750 745 755 761 768 764 766 763 768 756 748 756 752 743 738 737 737 739 738 740 742 744 752 760 764 769 772 775 777 780 782 783 783 785 785 785 784 784 785 785 788 791 794
754 739 753 757 762 758 768 750 759 763 767 770 752 771 746 741 742 739 739 738 738 740 744 749 759 764 768 770 772 775 778 780 782 783 783 783 782 779 779 780 781 783 786 788
751 751 755 759 755 749 761 751 758 760 763 763 759 767 744 741 746 736 735 737 737 741 743 750 756 761 766 768 771 775 778 779 781 781 780 780 778 776 775 775 777 779 782 784
739 737 740 743 741 745 745 759 761 759 755 777 756 765 752 741 743 741 737 738 741 742 746 751 756 762 765 768 771 775 777 779 780 781 779 778 775 772 771 772 773 776 778 780
745 744 733 734 748 744 752 762 778 785 778 774 763 768 749 735 742 742 741 739 739 743 747 754 757 762 765 768 773 775 777 779 780 781 778 777 775 772 771 770 771 774 776 778
754 758 736 731 738 749 754 753 760 787 773 765 768 769 744 739 737 740 738 735 740 742 748 756 759 762 766 772 776 778 779 781 780 780 778 777 775 773 771 770 772 774 776 779
748 747 724 723 723 730 748 761 734 753 748 765 747 741 733 738 740 740 740 738 741 743 750 756 760 764 769 773 778 778 779 781 781 780 780 778 776 775 774 773 774 775 777 779
729 753 723 727 725 725 735 725 759 750 779 783 752 756 748 746 742 738 741 741 743 747 753 756 760 765 770 775 779 779 781 781 781 781 780 781 778 777 777 777 777 778 780 782
724 740 733 730 737 734 743 744 738 732 744 760 765 748 722 729 733 736 739 739 742 748 753 756 762 769 771 775 779 780 780 781 781 781 780 782 781 779 780 781 781 782 783 785
719 730 742 730 709 710 713 726 729 748 757 742 749 741 723 729 732 734 737 744 742 745 753 758 764 768 772 775 777 779 780 780 781 781 781 781 782 781 781 783 784 785 787 788
721 732 744 739 728 721 728 721 723 726 733 744 753 738 725 728 731 734 740 745 748 750 758 764 764 767 771 773 776 777 779 778 781 781 781 782 783 783 783 783 785 787 788 789
722 726 732 729 726 710 731 721 718 725 738 736 736 724 729 731 732 735 746 746 756 760 762 760 765 768 770 772 775 777 777 777 779 780 780 782 783 784 784 785 785 788 789 791
719 734 722 716 715 719 716 714 716 724 722 733 723 718 711 724 732 734 743 749 761 764 761 763 765 767 769 770 772 775 776 777 778 779 780 782 784 786 786 787 788 789 792 793
719 730 722 725 715 719 726 716 713 713 711 713 713 719 714 719 729 743 749 752 758 761 770 773 772 771 771 770 770 770 774 776 777 779 780 782 783 786 788 789 791 792 794 796
723 718 730 732 716 721 733 715 717 712 711 713 727 714 716 732 737 745 751 752 756 772 776 775 773 772 772 772 771 771 769 773 776 778 779 782 784 786 789 790 791 793 795 797
725 726 721 730 726 753 722 716 716 720 716 716 720 723 722 731 740 749 753 766 770 771 773 773 772 772 772 770 770 770 769 769 771 776 778 781 785 785 789 791 794 796 798 800
718 720 725 738 734 718 725 722 722 723 719 717 721 726 725 735 751 766 767 770 774 775 778 778 776 775 773 770 767 766 766 766 767 773 777 780 784 788 791 793 795 798 800 802
720 721 723 726 741 746 720 724 722 721 731 717 720 725 732 738 744 767 773 772 777 779 780 779 778 776 773 768 763 761 761 762 765 771 775 780 785 790 792 795 797 799 801 804
727 722 729 726 736 721 721 725 722 744 734 721 720 726 733 740 755 767 774 777 779 780 780 779 778 777 773 769 765 762 762 766 769 772 778 783 787 792 795 797 800 801 806 809
722 729 724 725 734 743 723 728 736 735 729 726 727 731 747 756 764 771 775 779 781 782 782 782 780 779 777 774 770 769 770 773 774 776 783 787 791 796 799 803 807 806 809 813
740 721 720 722 729 731 731 730 732 731 733 735 737 741 749 759 766 772 777 781 783 784 784 785 784 782 781 780 778 777 781 780 781 783 789 795 799 799 802 802 810 813 815 820
725 726 725 734 731 730 732 735 732 731 735 738 742 748 753 762 771 777 780 782 784 786 787 787 787 786 788 787 787 787 788 789 790 792 798 804 804 808 813 814 819 820 822 826
722 725 724 728 729 732 734 733 735 740 744 747 750 755 763 769 775 779 782 782 786 788 790 790 789 792 794 794 795 796 796 797 798 803 808 812 814 817 818 822 826 828 830 831
717 720 726 720 720 727 731 739 740 743 748 752 758 765 770 772 778 781 782 785 787 789 791 793 796 797 799 801 803 804 805 806 808 810 816 820 822 825 827 830 834 836 837 838